| time (UTC) | temp F | wind direction | speed knots | gust knots | rain 1hr in | rain 24hr in | rain mn in | humidity % | barometer mb |
| 20260504003216 | 72 | 113 | 1.7 | 5.2 | 0.00 | 0.00 | 0.00 | 33 | 1020.6 |
| 20260504002616 | 72 | 125 | 1.7 | 6.1 | 0.00 | 0.00 | 0.00 | 34 | 1020.5 |
| 20260504002041 | 73 | 165 | 1.7 | 7.0 | 0.00 | 0.00 | 0.00 | 34 | 1020.5 |
| 20260504001416 | 73 | 161 | 1.7 | 7.8 | 0.00 | 0.00 | 0.00 | 32 | 1020.5 |
| 20260504000829 | 73 | 152 | 2.6 | 7.0 | 0.00 | 0.00 | 0.00 | 31 | 1020.5 |
| 20260504000219 | 73 | 112 | 2.6 | 7.8 | 0.00 | 0.00 | 0.00 | 33 | 1020.5 |
| 20260503235629 | 74 | 113 | 3.5 | 8.7 | 0.00 | 0.00 | 0.00 | 32 | 1020.4 |
| 20260503235018 | 73 | 127 | 2.6 | 7.0 | 0.00 | 0.00 | 0.00 | 33 | 1020.5 |
| 20260503234429 | 74 | 142 | 0.9 | 6.1 | 0.00 | 0.00 | 0.00 | 31 | 1020.5 |
| 20260503233842 | 74 | 127 | 0.0 | 6.1 | 0.00 | 0.00 | 0.00 | 34 | 1020.6 |
| 20260503233229 | 74 | 139 | 1.7 | 7.8 | 0.00 | 0.00 | 0.00 | 34 | 1020.7 |
| 20260503232617 | 74 | 125 | 2.6 | 13.0 | 0.00 | 0.00 | 0.00 | 32 | 1020.7 |
| 20260503232018 | 74 | 96 | 7.0 | 9.6 | 0.00 | 0.00 | 0.00 | 29 | 1020.6 |
| 20260503231429 | 74 | 169 | 1.7 | 7.8 | 0.00 | 0.00 | 0.00 | 28 | 1020.8 |
| 20260503230817 | 75 | 160 | 2.6 | 9.6 | 0.00 | 0.00 | 0.00 | 30 | 1020.8 |
| 20260503230216 | 74 | 124 | 1.7 | 8.7 | 0.00 | 0.00 | 0.00 | 31 | 1020.8 |
| 20260503225629 | 74 | 172 | 2.6 | 9.6 | 0.00 | 0.00 | 0.00 | 29 | 1020.8 |
| 20260503225016 | 74 | 123 | 2.6 | 10.4 | 0.00 | 0.00 | 0.00 | 32 | 1020.8 |
| 20260503224416 | 74 | 160 | 2.6 | 8.7 | 0.00 | 0.00 | 0.00 | 35 | 1020.9 |
| 20260503223829 | 73 | 106 | 4.3 | 10.4 | 0.00 | 0.00 | 0.00 | 37 | 1020.9 |
| 20260503223216 | 73 | 143 | 0.0 | 12.2 | 0.00 | 0.00 | 0.00 | 38 | 1021.0 |
| 20260503222617 | 74 | 128 | 4.3 | 9.6 | 0.00 | 0.00 | 0.00 | 37 | 1021.0 |
| 20260503222029 | 73 | 142 | 3.5 | 11.3 | 0.00 | 0.00 | 0.00 | 40 | 1021.2 |
| 20260503221416 | 73 | 113 | 5.2 | 11.3 | 0.00 | 0.00 | 0.00 | 41 | 1021.2 |
| 20260503220816 | 72 | 122 | 2.6 | 10.4 | 0.00 | 0.00 | 0.00 | 42 | 1021.3 |
| 20260503220216 | 73 | 106 | 3.5 | 8.7 | 0.00 | 0.00 | 0.00 | 40 | 1021.3 |
| 20260503215629 | 73 | 175 | 2.6 | 13.0 | 0.00 | 0.00 | 0.00 | 41 | 1021.4 |
| 20260503215017 | 72 | 102 | 4.3 | 10.4 | 0.00 | 0.00 | 0.00 | 41 | 1021.4 |
| 20260503214429 | 72 | 162 | 0.0 | 12.2 | 0.00 | 0.00 | 0.00 | 42 | 1021.6 |
| 20260503213816 | 73 | 121 | 6.1 | 11.3 | 0.00 | 0.00 | 0.00 | 43 | 1021.7 |
| 20260503213217 | 71 | 95 | 5.2 | 11.3 | 0.00 | 0.00 | 0.00 | 44 | 1021.9 |
| 20260503212616 | 72 | 116 | 4.3 | 11.3 | 0.00 | 0.00 | 0.00 | 45 | 1021.9 |
| 20260503212016 | 71 | 108 | 6.1 | 7.0 | 0.00 | 0.00 | 0.00 | 46 | 1022.0 |
| 20260503211416 | 70 | 60 | 0.9 | 11.3 | 0.00 | 0.00 | 0.00 | 46 | 1022.0 |
| 20260503210817 | 70 | 101 | 7.0 | 12.2 | 0.00 | 0.00 | 0.00 | 48 | 1022.1 |
| 20260503210216 | 70 | 159 | 1.7 | 12.2 | 0.00 | 0.00 | 0.00 | 47 | 1022.1 |
| 20260503205616 | 70 | 124 | 6.1 | 13.0 | 0.00 | 0.00 | 0.00 | 48 | 1022.3 |
| 20260503205017 | 69 | 144 | 4.3 | 14.8 | 0.00 | 0.00 | 0.00 | 49 | 1022.4 |
| 20260503204417 | 70 | 105 | 5.2 | 11.3 | 0.00 | 0.00 | 0.00 | 49 | 1022.5 |
| 20260503203816 | 69 | 114 | 4.3 | 10.4 | 0.00 | 0.00 | 0.00 | 50 | 1022.7 |
| 20260503203216 | 68 | 131 | 3.5 | 11.3 | 0.00 | 0.00 | 0.00 | 50 | 1022.7 |
| 20260503202616 | 68 | 103 | 6.1 | 14.8 | 0.00 | 0.00 | 0.00 | 49 | 1022.9 |
| 20260503202017 | 68 | 113 | 7.0 | 13.0 | 0.00 | 0.00 | 0.00 | 51 | 1023.1 |
| 20260503201416 | 69 | 116 | 4.3 | 11.3 | 0.00 | 0.00 | 0.00 | 51 | 1023.1 |
| 20260503200816 | 69 | 161 | 7.0 | 13.9 | 0.00 | 0.00 | 0.00 | 50 | 1023.1 |
| 20260503200217 | 68 | 118 | 5.2 | 12.2 | 0.00 | 0.00 | 0.00 | 54 | 1023.3 |
| 20260503195617 | 68 | 115 | 5.2 | 13.9 | 0.00 | 0.00 | 0.00 | 53 | 1023.5 |
| 20260503195016 | 68 | 121 | 7.0 | 11.3 | 0.00 | 0.00 | 0.00 | 53 | 1023.4 |
| 20260503194416 | 67 | 115 | 5.2 | 12.2 | 0.00 | 0.00 | 0.00 | 52 | 1023.5 |
| 20260503193816 | 68 | 131 | 2.6 | 11.3 | 0.00 | 0.00 | 0.00 | 51 | 1023.6 |
| 20260503193229 | 67 | 143 | 4.3 | 16.5 | 0.00 | 0.00 | 0.00 | 55 | 1023.7 |
| 20260503192617 | 67 | 99 | 3.5 | 9.6 | 0.00 | 0.00 | 0.00 | 54 | 1023.8 |
| 20260503192017 | 68 | 140 | 0.0 | 11.3 | 0.00 | 0.00 | 0.00 | 51 | 1023.9 |
| 20260503191416 | 66 | 83 | 0.0 | 11.3 | 0.00 | 0.00 | 0.00 | 55 | 1023.9 |
| 20260503190816 | 66 | 131 | 3.5 | 8.7 | 0.00 | 0.00 | 0.00 | 55 | 1024.2 |
| 20260503190216 | 66 | 94 | 7.0 | 9.6 | 0.00 | 0.00 | 0.00 | 55 | 1024.3 |
| 20260503185616 | 65 | 138 | 2.6 | 12.2 | 0.00 | 0.00 | 0.00 | 57 | 1024.3 |
| 20260503185029 | 65 | 178 | 1.7 | 12.2 | 0.00 | 0.00 | 0.00 | 57 | 1024.4 |
| 20260503184417 | 65 | 157 | 2.6 | 12.2 | 0.00 | 0.00 | 0.00 | 58 | 1024.5 |
| 20260503183816 | 65 | 118 | 2.6 | 11.3 | 0.00 | 0.00 | 0.00 | 58 | 1024.6 |
| 20260503183217 | 65 | 220 | 1.7 | 12.2 | 0.00 | 0.00 | 0.00 | 57 | 1024.7 |
| 20260503182616 | 65 | 173 | 3.5 | 10.4 | 0.00 | 0.00 | 0.00 | 58 | 1024.7 |
| 20260503182017 | 65 | 153 | 5.2 | 10.4 | 0.00 | 0.00 | 0.00 | 58 | 1024.7 |
| 20260503181418 | 65 | 143 | 4.3 | 10.4 | 0.00 | 0.00 | 0.00 | 58 | 1024.9 |
| 20260503180818 | 64 | 83 | 3.5 | 11.3 | 0.00 | 0.00 | 0.00 | 61 | 1024.9 |
| 20260503180217 | 64 | 135 | 3.5 | 9.6 | 0.00 | 0.00 | 0.00 | 60 | 1024.9 |
| 20260503175616 | 64 | 157 | 2.6 | 11.3 | 0.00 | 0.00 | 0.00 | 62 | 1025.0 |
| 20260503175017 | 65 | 174 | 5.2 | 11.3 | 0.00 | 0.00 | 0.00 | 61 | 1025.1 |
| 20260503174416 | 64 | 174 | 1.7 | 10.4 | 0.00 | 0.00 | 0.00 | 61 | 1025.1 |
| 20260503173829 | 63 | 152 | 5.2 | 11.3 | 0.00 | 0.00 | 0.00 | 63 | 1025.1 |
| 20260503173216 | 62 | 135 | 2.6 | 9.6 | 0.00 | 0.00 | 0.00 | 65 | 1025.1 |
| 20260503172618 | 63 | 118 | 2.6 | 8.7 | 0.00 | 0.00 | 0.00 | 63 | 1025.2 |
| 20260503172016 | 64 | 141 | 3.5 | 10.4 | 0.00 | 0.00 | 0.00 | 60 | 1025.3 |
| 20260503171416 | 62 | 151 | 3.5 | 9.6 | 0.00 | 0.00 | 0.00 | 65 | 1025.4 |
| 20260503170816 | 61 | 137 | 1.7 | 7.8 | 0.00 | 0.00 | 0.00 | 67 | 1025.4 |
| 20260503170217 | 61 | 130 | 4.3 | 9.6 | 0.00 | 0.00 | 0.00 | 68 | 1025.4 |
| 20260503150829 | 59 | 164 | 2.6 | 7.0 | 0.00 | 0.00 | 0.00 | 73 | 1025.4 |
| 20260503150216 | 58 | 131 | 1.7 | 6.1 | 0.00 | 0.00 | 0.00 | 75 | 1025.2 |
| 20260503140216 | 55 | 86 | 0.0 | 0.0 | 0.00 | 0.00 | 0.00 | 83 | 1024.9 |
| 20260503131416 | 54 | 230 | 0.0 | 0.0 | 0.00 | 0.00 | 0.00 | 86 | 1024.5 |
| 20260503130829 | 53 | 230 | 0.0 | 1.7 | 0.00 | 0.00 | 0.00 | 87 | 1024.5 |
| 20260503130216 | 54 | 271 | 0.0 | 0.0 | 0.00 | 0.00 | 0.00 | 89 | 1024.5 |
| 20260503120216 | 54 | 271 | 0.0 | 0.0 | 0.00 | 0.00 | 0.00 | 86 | 1023.7 |
| 20260503110817 | 53 | 278 | 0.0 | 0.0 | 0.00 | 0.00 | 0.00 | 81 | 1023.6 |
| 20260503110217 | 53 | 277 | 0.0 | 0.0 | 0.00 | 0.00 | 0.00 | 82 | 1023.6 |
| 20260503100216 | 53 | 272 | 0.0 | 1.7 | 0.00 | 0.00 | 0.00 | 81 | 1023.6 |
| 20260503090216 | 52 | 331 | 0.0 | 0.0 | 0.00 | 0.00 | 0.00 | 84 | 1023.9 |
| 20260503081416 | 51 | 326 | 0.0 | 2.6 | 0.00 | 0.00 | 0.00 | 85 | 1024.0 |
| 20260503080816 | 51 | 303 | 0.0 | 0.9 | 0.00 | 0.00 | 0.00 | 85 | 1023.9 |
| 20260503080216 | 51 | 327 | 0.0 | 2.6 | 0.00 | 0.00 | 0.00 | 86 | 1024.0 |
| 20260503072616 | 50 | 275 | 0.0 | 1.7 | 0.00 | 0.00 | 0.00 | 90 | 1024.5 |
| 20260503072028 | 50 | 320 | 0.0 | 2.6 | 0.00 | 0.00 | 0.00 | 91 | 1024.4 |
| 20260503071441 | 50 | 332 | 0.0 | 3.5 | 0.00 | 0.00 | 0.00 | 91 | 1024.5 |
| 20260503070816 | 49 | 318 | 0.0 | 2.6 | 0.00 | 0.00 | 0.00 | 91 | 1024.5 |
| 20260503070228 | 49 | 305 | 0.0 | 2.6 | 0.00 | 0.00 | 0.00 | 92 | 1024.5 |
| 20260503060216 | 45 | 278 | 0.0 | 0.0 | 0.00 | 0.00 | 0.00 | 94 | 1024.5 |
| 20260503055017 | 44 | 288 | 0.0 | 2.6 | 0.00 | 0.00 | 0.00 | 95 | 1024.7 |
| 20260503054416 | 44 | 308 | 0.9 | 1.7 | 0.00 | 0.00 | 0.00 | 94 | 1024.5 |
| 20260503053829 | 45 | 316 | 0.9 | 2.6 | 0.00 | 0.00 | 0.00 | 94 | 1024.6 |
| 20260503053217 | 45 | 285 | 0.9 | 1.7 | 0.00 | 0.00 | 0.00 | 94 | 1024.5 |
| 20260503052629 | 46 | 324 | 0.0 | 3.5 | 0.00 | 0.00 | 0.00 | 95 | 1024.5 |
| 20260503052017 | 45 | 302 | 1.7 | 5.2 | 0.00 | 0.00 | 0.00 | 95 | 1024.5 |
| 20260503051416 | 45 | 304 | 1.7 | 3.5 | 0.00 | 0.00 | 0.00 | 95 | 1024.3 |
| 20260503050816 | 45 | 316 | 1.7 | 2.6 | 0.00 | 0.00 | 0.00 | 94 | 1024.2 |
| 20260503050217 | 45 | 318 | 1.7 | 3.5 | 0.00 | 0.00 | 0.00 | 94 | 1024.2 |
| 20260503045618 | 45 | 265 | 1.7 | 3.5 | 0.00 | 0.00 | 0.00 | 94 | 1024.1 |
| 20260503045042 | 45 | 301 | 0.9 | 2.6 | 0.00 | 0.00 | 0.00 | 94 | 1024.1 |
| 20260503044429 | 46 | 273 | 0.0 | 3.5 | 0.00 | 0.00 | 0.00 | 95 | 1024.1 |
| 20260503043829 | 46 | 284 | 0.0 | 2.6 | 0.00 | 0.00 | 0.00 | 92 | 1024.1 |
| 20260503043217 | 46 | 267 | 0.0 | 2.6 | 0.00 | 0.00 | 0.00 | 93 | 1024.1 |
| 20260503042616 | 46 | 294 | 1.7 | 1.7 | 0.00 | 0.00 | 0.00 | 92 | 1024.1 |
| 20260503041416 | 47 | 269 | 1.7 | 4.3 | 0.00 | 0.00 | 0.00 | 92 | 1024.1 |
| 20260503040216 | 47 | 287 | 0.0 | 3.5 | 0.00 | 0.00 | 0.00 | 90 | 1023.9 |
| 20260503035643 | 47 | 269 | 0.9 | 4.3 | 0.00 | 0.00 | 0.00 | 90 | 1023.8 |
| 20260503035017 | 48 | 299 | 1.7 | 5.2 | 0.00 | 0.00 | 0.00 | 90 | 1023.6 |
| 20260503034417 | 47 | 299 | 1.7 | 2.6 | 0.00 | 0.00 | 0.00 | 89 | 1023.6 |
| 20260503033816 | 48 | 289 | 0.0 | 3.5 | 0.00 | 0.00 | 0.00 | 88 | 1023.6 |
| 20260503033219 | 49 | 303 | 1.7 | 6.1 | 0.00 | 0.00 | 0.00 | 88 | 1023.6 |
| 20260503032617 | 49 | 266 | 0.0 | 7.0 | 0.00 | 0.00 | 0.00 | 88 | 1023.6 |
| 20260503032018 | 50 | 289 | 1.7 | 3.5 | 0.00 | 0.00 | 0.00 | 86 | 1023.6 |
| 20260503031417 | 50 | 2 | 0.0 | 3.5 | 0.00 | 0.00 | 0.00 | 86 | 1023.3 |
| 20260503030817 | 50 | 323 | 0.0 | 4.3 | 0.00 | 0.00 | 0.00 | 86 | 1023.4 |
| 20260503030216 | 50 | 2 | 0.0 | 7.0 | 0.00 | 0.00 | 0.00 | 85 | 1023.3 |
| 20260503025617 | 50 | 36 | 0.0 | 7.0 | 0.00 | 0.00 | 0.00 | 86 | 1023.5 |
| 20260503025055 | 50 | 32 | 2.6 | 4.3 | 0.00 | 0.00 | 0.00 | 88 | 1023.3 |
| 20260503024420 | 48 | 334 | 0.0 | 2.6 | 0.00 | 0.00 | 0.00 | 88 | 1023.4 |
| 20260503023829 | 49 | 286 | 0.0 | 0.0 | 0.00 | 0.00 | 0.00 | 87 | 1023.3 |
| 20260503023217 | 49 | 286 | 0.0 | 0.0 | 0.00 | 0.00 | 0.00 | 86 | 1023.2 |
| 20260503022628 | 50 | 286 | 0.0 | 0.0 | 0.00 | 0.00 | 0.00 | 85 | 1023.1 |
| 20260503022016 | 50 | 302 | 0.0 | 2.6 | 0.00 | 0.00 | 0.00 | 84 | 1023.1 |
| 20260503021417 | 51 | 302 | 0.0 | 1.7 | 0.00 | 0.00 | 0.00 | 85 | 1022.8 |
| 20260503020816 | 52 | 287 | 0.0 | 0.9 | 0.00 | 0.00 | 0.00 | 82 | 1022.6 |
| 20260503020216 | 52 | 346 | 0.0 | 2.6 | 0.00 | 0.00 | 0.00 | 81 | 1022.5 |
| 20260503015629 | 52 | 340 | 0.0 | 4.3 | 0.00 | 0.00 | 0.00 | 81 | 1022.5 |
| 20260503015016 | 52 | 300 | 0.0 | 5.2 | 0.00 | 0.00 | 0.00 | 80 | 1022.2 |
| 20260503014416 | 52 | 303 | 1.7 | 7.0 | 0.00 | 0.00 | 0.00 | 80 | 1022.2 |
| 20260503013841 | 52 | 280 | 1.7 | 7.8 | 0.00 | 0.00 | 0.00 | 79 | 1022.0 |
| 20260503013216 | 53 | 345 | 1.7 | 10.4 | 0.00 | 0.00 | 0.00 | 78 | 1021.8 |
| 20260503012616 | 53 | 314 | 3.5 | 11.3 | 0.00 | 0.00 | 0.00 | 77 | 1021.8 |
| 20260503012016 | 54 | 19 | 2.6 | 10.4 | 0.00 | 0.00 | 0.00 | 75 | 1021.7 |
| 20260503011416 | 54 | 21 | 3.5 | 10.4 | 0.00 | 0.00 | 0.00 | 74 | 1021.5 |
| 20260503010816 | 55 | 0 | 1.7 | 12.2 | 0.00 | 0.00 | 0.00 | 72 | 1021.4 |
| 20260503010230 | 55 | 324 | 2.6 | 13.9 | 0.00 | 0.00 | 0.00 | 72 | 1021.4 |
| 20260503005617 | 55 | 329 | 3.5 | 14.8 | 0.00 | 0.00 | 0.00 | 71 | 1021.2 |
| 20260503005019 | 56 | 11 | 3.5 | 13.9 | 0.00 | 0.00 | 0.00 | 71 | 1021.2 |
| 20260503004416 | 56 | 315 | 4.3 | 9.6 | 0.00 | 0.00 | 0.00 | 70 | 1021.4 |
| 20260503003817 | 56 | 311 | 2.6 | 11.3 | 0.00 | 0.00 | 0.00 | 70 | 1021.2 |